Tracking 32139 objects as of 17-Nov-2025
HD Live streaming from Space Station
objects crossing your sky now

OBJECT-A

Track OBJECT-A now!
10-day predictions


NORAD ID: 65488
Int'l Code: 2025-197A
Perigee: 526.9 km
Apogee: 548.0 km
Inclination: 97.4 °
Period: 95.2 minutes
Semi major axis: 6908 km
RCS: Unknown
Launch date: September 5, 2025
Source: Commonwealth of Independent States (former USSR) (CIS)
Launch site: Jiuquan Satellite Launch Center, China (JSC)
Your satellite tracking list
Your tracking list is empty




NASA's NSSDC Master Catalog

Two Line Element Set (TLE):
1 65488U 25197A   25320.82510391  .00005911  00000-0  34772-3 0  9998
2 65488  97.4072 145.0345 0015277  37.0389 323.1893 15.11920253 10971
Source of the keplerian elements: AFSPC